Find Starlink 37344

NORAD ID: 68744 Int'l Des: 2026-082 Owner: SPXS Country: US Constellation: starlink operational
LEOCIRCULARRETROGRADE

Aktuelle Ansicht

3D-Globus wird geladen...

Über Starlink 37344

Beschreibung wird geladen...

Nächste Überflüge

Passes for default location (London). Set your location on the main map for personalized predictions.

Höhenverlauf

Loading altitude history...

Zweizeiliger Elementsatz

1 68744U 26082S 26151.18600772 -.00301748 00000-0 -59374-2 0 9998
2 68744 97.2836 14.9393 0000943 170.9628 189.1640 15.48329881 7098
Epoch: 31. Mai 2026 • Age: 10 hours

Aktueller Status

Höhe 435.1 km
Geschwindigkeit 7.66 km/s
Subsatellitenpunkt 74.14°N, 111.78°W
Startdatum 15. Apr. 2026
Alter 0.1 years
Typ internet

Technische Details

Klassifizierung Payload
Masse 575.00 kg
Trockenmasse 530.00 kg
Gesamtmasse 575.00 kg
Länge 0.30 m
Durchmesser 4.10 m
Spannweite 29.00 m
Form Box + pan
Hersteller SPXS
Bus-Typ Starlink V2MO
Phasenstatus In Orbit
Besitzer/Staat SPXS/US

Most Searched